[Date Prev][Date Next][Thread Prev][Thread Next][Date Index][Thread Index]

[jamsat-news:772] jas2info #75




=========================   最新情報   ==============================

        Last updated :Mon.23-Feb.-98 20:15 (JST) #75

====================================================================   
     衛星情報 FOシリーズの軌道要素、テレメトリ、QSOの状況等をま
   とめてみました.

  1)FO−29(ふじ3号)は2月23日 (月)の18:56(JST)
     のパスではJAアナログモードで運用されておりました.
         
  ■ 軌道要素1:「jamsatーkeps:666」より
                 SB KEPS @ AMSAT  $ORBS-051.N
                 2Line Orbital Elements 051.AMSAT

 HR AMSAT ORBITAL ELEMENTS FOR AMATEUR SATELLITES IN NASA FORMAT
 FROM WA5QGD FORT WORTH,TX February 20, 1998
 SEND SUBSCRIBE/UNSUBSCRIBE TO listserv@amsat.org ONLY
 BID: ORBS-051.N

  DECODE 2-LINE ELSETS WITH THE FOLLOWING KEY:
  1 AAAAAU 00  0  0 BBBBB.BBBBBBBB  .CCCCCCCC  00000-0  00000-0 0  DDDZ
  2 AAAAA EEE.EEEE FFF.FFFF GGGGGGG HHH.HHHH III.IIII JJ.JJJJJJJJKKKKKZ
  KEY: A-CATALOGNUM B-EPOCHTIME C-DECAY D-ELSETNUM E-INCLINATION F-RAAN
  G-ECCENTRICITY H-ARGPERIGEE I-MNANOM J-MNMOTION K-ORBITNUM Z-CHECKSUM
  TO ALL RADIO AMATEURS BT
 
 FO-29
 1 24278U 96046B   98050.04908713 -.00000023  00000-0  15705-4 0 01723
 2 24278 098.5154 062.2745 0350618 266.3526 089.7461 13.52638121074497
 
 ■ 軌道要素2:「jamsatーkeps:667」より
                SB KEPS @ AMSAT  $ORBS-051.O
                Orbital Elements  051.OSCAR

 HR AMSAT ORBITAL ELEMENTS FOR OSCAR SATELLITES
 FROM WA5QGD FORT WORTH,TX February 20, 1998
 SEND SUBSCRIBE/UNSUBSCRIBE TO listserv@amsat.org ONLY
 BID: ORBS-051.O
 TO ALL RADIO AMATEURS BT
  Satellite: FO-29
 Catalog number: 24278
 Epoch time:      98050.04908713
 Element set:    0172
 Inclination:      098.5154 deg
 RA of node:       062.2745 deg
 Eccentricity:    0.0350618
 Arg of perigee:   266.3526 deg
 Mean anomaly:     089.7461 deg
 Mean motion:   13.52638121 rev/day
 Decay rate:       -2.3e-07 rev/day^2
 Epoch rev:           07449
 Checksum:              317

 -----------------------------------------------------------
  1 )FO−29(ふじ3号)の 2月23日(月)のJAアナログモードで
    運用中の1分毎のビーコン波にのって送信されるCWテレメトリの1部です.

    AS7509C   23Feb98
    JST  18:56 - 19:14                                                            

HI HI AE C7 81 55 00 4O SF 0D 7E E2 69 8F 79 60 84 92 B0 6D 8F 8C 8E 8F 8C 
HI HI AE C7 81 55 00 4E FF 0D 09 09 4A A1  C 60 94 91 B0 60 6F 8C 8E 8F 8B  
HI HI AE C7 81 51 00 4E FF 0D  9 00 51 A5 77 60 94 92 B0 6A 8F 8C 8E 8F 8C 
HI HI AE C7 81 55 00 4E FF 0D 99 08 6C  9 7B 60 94 92 B0 76 8F 8C 8E 8F 8C 
HI HI AE C7 81 51 00 4E FF 0D 0  87 6  94 7E 60 94 92 B0 67 8F 8C 8E 8F 8C 
HI HI AE C7 81 51 00 4E FF 0D 09 00 9B A4 7F 60 94 92 B0 D5 8F 8C 8E 8F 8C 
HI HI AE C7 81 55 00 50 FF 0D 98 94 7B B0 7  60 94 92 B0  5 8F 8C 8E 8F 8C
HI HI AE C7 81 55 00 50 FF 0D 09 00 44 9F 7E 60 

 2) CWアナログテレメトリ換算値例	FO−29(ふじ3号)	
	上記テレメトリの最初の行を換算
					
	テレメトリ	内   容		換算値	単 位
        3C	磁気センサーZ軸=	51470.6	nT
        3D	磁気センサX軸	=	70098.0	nT
        4A	太陽電池発生電流=	 1186.3	mA
        4B	B充放電電流	=	 -118.4	mA
        4C	B端子電圧	=	   14.2	V
        4D	B中間端子電圧	=           7.0	V
        5A	バス電圧	=	   17.3	V
        5B	JTA送信電力	=	  610.4	mW
        5C 	構体温度1	=	   26.3	℃
        5D	構体温度2	=	   27.5	℃
        6A	構体温度3	=	   26.7	℃
        6B	構体温度4	=	   26.3	℃
        6C	Bセル温度	=	   27.5	℃

 ==========================================================================  
  3)FO−20(ふじ 2号)のCWテレメトリは2月13日(金)のパスでも
      切れ目の無い連続音になっいましたが,アナログ QSOは通常どうり行われております.
 -------------------------------------------------------------------------- 
 
 ■ 軌道要素1 :出典は「ふじ3号」に同じ.
 
 FO-20
 1 20480U 90013C   98050.18438002  .00000010  00000-0  92600-4 0 00471
 2 20480 099.0752 330.6474 0540408 178.2799 182.0329 12.83241548376389
   
  ■ 軌道要素2 :出典は「ふじ3号」に同じ. 
  
 Satellite: FO-20
 Catalog number: 20480
 Epoch time:      98050.18438002
 Element set:    0047
 Inclination:      099.0752 deg
 RA of node:       330.6474 deg
 Eccentricity:    0.0540408
 Arg of perigee:   178.2799 deg
 Mean anomaly:     182.0329 deg
 Mean motion:   12.83241548 rev/day
 Decay rate:        1.0e-07 rev/day^2
 Epoch rev:           37638
 Checksum:              300
 =========================   JARL運用情報   =========================

  *JARL のホームページに運用の予定変更が記載されていましたのでご紹介します.

        ■ ふじ3号/FO−29 ■     
   
   運用予定の変更
 
   アマチュア衛星「ふじ3号」のコンピュータにメモリーエラーが発生しました。
 現在,コンピューターのリセット,プログラムのロード作業を行っていますが,
 アップリンクの回線状態が悪く立ち上げに時間がかかっています。12月19日
 から予定しているデジトーカ運用と1月9日からの1200bpsメールボックス運用を
 中止して,しばらくの間アナログ系運用とします。  
           
        ■ ふじ2号/FO−20 ■
      
            「ふじ2号」 現況                                                                                               
   JAS-1b/FO-20(ふじ2号)の不具合発生について

    JAS-1b(ふじ2号)のCWテレメトリ信号に,1997年10月12日12時
 (JST)の日本上空通過時,3桁の数字が繰り返されるはずが3個の長音の
  繰り返しとなっているという異常が発見されました。この不具合は次の通過時
  からは回復していましたが13日15時20分の通過時に再び観測されました。
  衛星のアナログ系中継モード動作は異常が無く,正常時のテレメトリ内容からは
  衛星の動作に異常は認められません。従って,直ちに衛星のミッションに影響す
  ることは無いと予想されますので,当面はアナログ系中継モードを継続します。
  衛星は既に打ち上げてから7年8ヶ月を経ておりますので,今後は監視を強化す
  る予定です。アマチュア各位のレポートをお待ちします.   
  
  以上  http://www.jarl.or.jp/Japanese/3_Fuji/jr1nvu.htm  より.
                                           
   =============   JAS-2 (ふじ3号)と現在までの情報   ===========  
  A.電話によるふじ3号の運用情報
      社団法人日本アマチュア連盟によるサービス
           TEL .   03− 3942 − 1000
  B.アマチュア無線FAXサービス
      JARLによるふじ3号の軌道情報(オービットカレンダー)
         FAX No.  03− 3233 −0055
  C.WWWブラウザで情報を簡単に見れる人のためにJAS−2
     ふじ3号の衛星としての運用されるまでの名前)の概要、打ち上げ
     までの状況、運用中における状況を説明したホームページを紹介し
     ておきます.
    1)社団法人日本アマチュア無線連盟(JARL)のホームページ

          http://www.jarl.or.jp/Japanese/3_Fuji/jr1nvu.htm
 
    2)宇宙開発事業団(NASDA)ホームページ 
          http://www.nasda.go.jp/
         打上げ衛星 :地球観測プラットフォーム技術衛星(ADEOS) 
                       アマチュア衛星3号(JAS-2)
          http://yyy.tksc.nasda.go.jp/Home/Press/Press-j/jas-2_j.html        

  D.JAMSATによる軌道情報の活用
        JAMSATのホームページまたはjamsat−kepsの軌道要素より
      衛星の軌道情報を得る.
     JAMSATホームページ
               URL    http://www.jamsat.or.jp

       上記ホームページでは各地で行われるアマチュア通信衛星に関する
      ミューティングのお知らせや世界のアマチュア衛星に関する情報が
      満載されています.

=======   FO−20/29(ふじ 2号/3号)のアナログQSOの状況  ==========

    JA6BX局の江崎昌男さんがQSOの状況を「jamsat−bb:3162」にFO-20/29 
  Activitiesとしてレポートされましたので転載させて頂きます.
  これからも宜しくお願いします.

   この所、FO-20とFO-29が大変にぎやかです。各地でのJAMSATのミーティングの
 効果ではないでしょうか。

   今日(2/22[日曜])の11:00JST前後と、その次の12:50JST前後の2つのパスで、
 私がワッチしただけでも次の局が出ていました。
 他にも聞き落としが有ったかもしれませんが、あしからず!
 
 7M4DUI JM3EYK JH4PQM JS3OSI JH7LMO JA3TKW JA9ATJ JR6NVG JA5AKB JM1ZZH/1
 JA3CG/1 JA1YEJ VR2XRW JR6BLW

 上記の他、最近ワッチまたはQSOした局として国内では:
  7K4IIN JA1WPX JL2GSN JN7EXM 7L1FPU JA9ABA JA1JRZ JR2DUD JA9LX JA6EGM 
  JH1MYH JK1DVX JH4OWG/1 JA1VKH JH5DAH JA2WDN

 海外局では: VR2XMT VR2ZGK 9V1UV BV3CEが最近よく出ているようです。
             他に常駐と思われる KB8YHV/KH2 が 1月中ごろに出ていました。

 何分にも限られた時間内でのワッチですので、洩れや聞き落としもかなりあると
 思いますが、FO-20/29の近況を知る一助となれば幸いです。
  
  73, de JA6BX - Y. Esaki 34122731@people.or.jp 
                         or, ja6bx@jamsat.or.jp
                             ja6bx@amsat.org
  
 =========================================================================
       JAMSATのメンバーのご協力によりJH6MME(高山 秀造)が
    執筆・編集を担当しております.ご指摘の意見、疑問やこのようにしたら
    というアイデアがありましたら小さなことでもかまいませんので気軽に下
    記アドレスまでご連絡ください.jamsat−newsからjas2
    infoへの転載をJH4PHW局坂井さんに担当して頂いております.
                    Eーmail :   jh6mme@jamsat.or.jp : jh4phw@jamsat.or.jp
 ===============================   END  ===============================